Change the Weather History Date:

Sunday, October 23, 2011

  Actual Average (KHSV) Record (KHSV)
Temperature  
Mean Temperature 50 °F 60 °F  
Max Temperature 66 °F 72 °F 89 °F (1927)
Min Temperature 33 °F 49 °F 27 °F (1937)
Degree Days  
Heating Degree Days 16 6  
Month to date heating degree days 83  
Since 1 July heating degree days 96  
Cooling Degree Days 0 1  
Month to date cooling degree days 62  
Year to date cooling degree days 1932  
Moisture  
Dew Point 40 °F    
Average Humidity 75    
Maximum Humidity 100    
Minimum Humidity 32    
Precipitation  
Precipitation 0.00 in 0.12 in 1.21 in (1984)
Month to date precipitation 2.59  
Year to date precipitation 42.63  
Snow  
Snow 0.00 in - - ()
Month to date snowfall  
Since 1 July snowfall  
Since 1 September snowfall  
Snow Depth -    
Sea Level Pressure  
Sea Level Pressure 30.10 in    
Wind  
Wind Speed 0 mph (South)    
Max Wind Speed 7 mph    
Max Gust Speed -    
Visibility 10 miles    
Events      
T = Trace of Precipitation, MM = Missing Value Source: NWS Daily Summary

Daily Weather History Graph

Daily Weather History Graph

Search for Another Location

Airport or City:

Trip Planner

Search our weather history database for the weather conditions in past years. The results will help you decide how hot, cold, wet, or windy it might be!

Date:

Astronomy

Oct. 23, 2011 Rise Set
Actual Time 6:58 AM CDT 6:01 PM CDT
Civil Twilight 6:32 AM CDT 6:27 PM CDT
Nautical Twilight 6:03 AM CDT 6:57 PM CDT
Astronomical Twilight 5:34 AM CDT 7:26 PM CDT
Moon 3:13 AM CDT (10/23) 3:46 PM CDT (10/23)
Length of Visible Light 11h 54m
Length of Day
11h 03m
Waning Crescent, 14% of the Moon is Illuminated
Oct 23
Waning Crescent
Oct 26
New
Nov 2
First Quarter
Nov 10
Full
Nov 18
Last Quarter

Hourly Weather History & Observations

Time (CDT) Temp. Dew Point Humidity Pressure Visibility Wind Dir Wind Speed Gust Speed Precip Events Conditions
12:15 AM 37.4 °F 37.4 °F 100% 30.09 in 10.0 mi Calm Calm - N/A   Clear
12:35 AM 37.4 °F 37.4 °F 100% 30.09 in 10.0 mi Calm Calm - N/A   Clear
12:55 AM 37.4 °F 37.4 °F 100% 30.09 in 10.0 mi Calm Calm - N/A   Clear
1:15 AM 37.4 °F 37.4 °F 100% 30.09 in 10.0 mi Calm Calm - N/A   Clear
1:35 AM 37.4 °F 37.4 °F 100% 30.10 in 10.0 mi Calm Calm - N/A   Clear
1:55 AM 37.4 °F 37.4 °F 100% 30.09 in 10.0 mi Calm Calm - N/A   Clear
2:15 AM 37.4 °F 37.4 °F 100% 30.09 in 10.0 mi Calm Calm - N/A   Clear
2:35 AM 37.4 °F 37.4 °F 100% 30.09 in 10.0 mi Calm Calm - N/A   Clear
2:55 AM 35.6 °F 35.6 °F 100% 30.09 in 10.0 mi Calm Calm - N/A   Clear
3:15 AM 35.6 °F 35.6 °F 100% 30.09 in 10.0 mi Calm Calm - N/A   Clear
3:35 AM 35.6 °F 35.6 °F 100% 30.10 in 10.0 mi Calm Calm - N/A   Clear
3:55 AM 35.6 °F 35.6 °F 100% 30.09 in 10.0 mi Calm Calm - N/A   Clear
4:15 AM 35.6 °F 35.6 °F 100% 30.10 in 10.0 mi Calm Calm - N/A   Clear
4:35 AM 35.6 °F 35.6 °F 100% 30.10 in 10.0 mi Calm Calm - N/A   Clear
4:55 AM 35.6 °F 35.6 °F 100% 30.10 in 10.0 mi Calm Calm - N/A   Clear
5:15 AM 35.6 °F 35.6 °F 100% 30.11 in 10.0 mi Calm Calm - N/A   Clear
5:35 AM 33.8 °F 33.8 °F 100% 30.12 in 10.0 mi Calm Calm - N/A   Clear
5:55 AM 33.8 °F 33.8 °F 100% 30.12 in 10.0 mi Calm Calm - N/A   Clear
6:15 AM 35.6 °F 35.6 °F 100% 30.11 in 10.0 mi Calm Calm - N/A   Clear
6:35 AM 33.8 °F 33.8 °F 100% 30.12 in 10.0 mi Calm Calm - N/A   Clear
6:55 AM 33.8 °F 33.8 °F 100% 30.12 in 10.0 mi Calm Calm - N/A   Clear
7:15 AM 35.6 °F 35.6 °F 100% 30.13 in 10.0 mi Calm Calm - N/A   Clear
7:35 AM 35.6 °F 35.6 °F 100% 30.13 in 10.0 mi Calm Calm - N/A   Clear
7:55 AM 35.6 °F 35.6 °F 100% 30.14 in 10.0 mi Calm Calm - N/A   Clear
8:15 AM 37.4 °F 37.4 °F 100% 30.14 in 10.0 mi Calm Calm - N/A   Clear
8:35 AM 42.8 °F 41.0 °F 93% 30.14 in 10.0 mi Calm Calm - N/A   Clear
8:55 AM 44.6 °F 42.8 °F 93% 30.15 in 10.0 mi Calm Calm - N/A   Clear
9:15 AM 48.2 °F 42.8 °F 82% 30.14 in 10.0 mi East 3.5 mph - N/A   Clear
9:35 AM 51.8 °F 42.8 °F 71% 30.14 in 10.0 mi Calm Calm - N/A   Clear
9:55 AM 55.4 °F 42.8 °F 63% 30.14 in 10.0 mi Calm Calm - N/A   Clear
10:15 AM 57.2 °F 42.8 °F 59% 30.14 in 10.0 mi Calm Calm - N/A   Clear
10:35 AM 60.8 °F 41.0 °F 48% 30.13 in 10.0 mi Calm Calm - N/A   Clear
10:55 AM 60.8 °F 41.0 °F 48% 30.13 in 10.0 mi Calm Calm - N/A   Clear
11:35 AM 64.4 °F 37.4 °F 37% 30.12 in 7.0 mi Calm Calm - N/A   Clear
11:55 AM 64.4 °F 37.4 °F 37% 30.11 in 10.0 mi ESE 4.6 mph - N/A   Clear
12:15 PM 64.4 °F 37.4 °F 37% 30.10 in 10.0 mi Calm Calm - N/A   Clear
12:35 PM 66.2 °F 37.4 °F 35% 30.09 in 10.0 mi SE 4.6 mph - N/A   Clear
1:15 PM 64.4 °F 37.4 °F 37% 30.09 in 10.0 mi SSW 3.5 mph - N/A   Clear
1:35 PM 66.2 °F 37.4 °F 35% 30.08 in 10.0 mi SSW 6.9 mph - N/A   Clear
1:55 PM 66.2 °F 35.6 °F 32% 30.08 in 10.0 mi South 4.6 mph - N/A   Clear
2:15 PM 64.4 °F 35.6 °F 34% 30.07 in 10.0 mi South 6.9 mph - N/A   Clear
2:55 PM 64.4 °F 37.4 °F 37% 30.06 in 10.0 mi SW 5.8 mph - N/A   Clear
3:15 PM 64.4 °F 35.6 °F 34% 30.06 in 10.0 mi SW 3.5 mph - N/A   Clear
3:35 PM 64.4 °F 35.6 °F 34% 30.06 in 10.0 mi Calm Calm - N/A   Clear
3:55 PM 64.4 °F 35.6 °F 34% 30.06 in 10.0 mi Calm Calm - N/A   Clear
4:15 PM 64.4 °F 37.4 °F 37% 30.07 in 10.0 mi SW 3.5 mph - N/A   Clear
4:35 PM 62.6 °F 37.4 °F 39% 30.07 in 10.0 mi Calm Calm - N/A   Clear
4:55 PM 62.6 °F 42.8 °F 48% 30.06 in 10.0 mi Calm Calm - N/A   Clear
5:15 PM 62.6 °F 39.2 °F 42% 30.06 in 10.0 mi Calm Calm - N/A   Clear
5:35 PM 60.8 °F 44.6 °F 55% 30.06 in 10.0 mi Calm Calm - N/A   Clear
5:55 PM 59.0 °F 46.4 °F 63% 30.06 in 10.0 mi Calm Calm - N/A   Clear
6:15 PM 55.4 °F 46.4 °F 72% 30.06 in 10.0 mi Calm Calm - N/A   Scattered Clouds
6:35 PM 55.4 °F 46.4 °F 72% 30.06 in 10.0 mi Calm Calm - N/A   Mostly Cloudy
7:15 PM 55.4 °F 50.0 °F 82% 30.08 in 10.0 mi Calm Calm - N/A   Mostly Cloudy
7:35 PM 55.4 °F 46.4 °F 72% 30.08 in 10.0 mi Calm Calm - N/A   Scattered Clouds
7:55 PM 53.6 °F 48.2 °F 82% 30.09 in 10.0 mi Calm Calm - N/A   Scattered Clouds
8:15 PM 53.6 °F 50.0 °F 88% 30.09 in 10.0 mi Calm Calm - N/A   Scattered Clouds
8:35 PM 53.6 °F 50.0 °F 88% 30.10 in 10.0 mi Calm Calm - N/A   Mostly Cloudy
8:55 PM 53.6 °F 50.0 °F 88% 30.11 in 10.0 mi Calm Calm - N/A   Overcast
9:15 PM 53.6 °F 48.2 °F 82% 30.11 in 10.0 mi Calm Calm - N/A   Overcast
9:35 PM 53.6 °F 50.0 °F 88% 30.12 in 10.0 mi Calm Calm - N/A   Overcast
9:55 PM 53.6 °F 50.0 °F 88% 30.12 in 10.0 mi Calm Calm - N/A   Overcast
10:15 PM 53.6 °F 50.0 °F 88% 30.13 in 10.0 mi WSW 3.5 mph - N/A   Overcast
10:35 PM 55.4 °F 50.0 °F 82% 30.13 in 10.0 mi Calm Calm - N/A   Overcast
10:55 PM 55.4 °F 50.0 °F 82% 30.13 in 10.0 mi SW 3.5 mph - N/A   Overcast
11:15 PM 53.6 °F 50.0 °F 88% 30.13 in 10.0 mi SSW 8.1 mph - N/A   Overcast
11:35 PM 53.6 °F 50.0 °F 88% 30.13 in 10.0 mi South 3.5 mph - N/A   Overcast